Probability
0 0 0 0 0 0 0 0 0 0 0 0 0 0 0 0 0 0 0 0 0 1 2 2 2 1 1 0 0 0 0 0 0 0 0 0 0 0 0 0 0 0 0 0
0 0 0 0 0 0 0 0 0 0 0 0 0 0 0 0 0 0 0 0 0 0 1 1 1 1 1 0 0 0 0 0 0 0 0 0 0 0 0 0 0 0 0 0
0 0 0 0 0 0 0 0 0 0 0 0 0 0 0 0 0 0 0 0 0 0 0 0 0 1 1 0 0 0 0 0 0 0 0 0 0 0 0 0 0 0 0 0
0 0 0 0 0 0 0 0 0 0 0 0 0 0 0 0 0 0 0 0 0 0 0 0 0 0 0 0 0 0 0 0 0 0 0 0 0 0 0 0 0 0 0 0
0 0 0 0 0 0 0 0 0 0 0 0 0 0 0 0 0 0 0 0 0 0 0 0 0 0 0 0 0 0 0 0 0 0 0 0 0 0 0 0 0 0 0 0
0 0 0 0 0 0 0 0 0 0 0 0 0 0 0 0 0 0 0 0 0 0 0 0 0 0 0 0 0 0 0 0 0 0 0 0 0 0 0 0 0 0 0 0
0 0 0 0 0 0 0 0 0 0 0 0 0 0 0 0 0 0 0 0 0 0 0 0 0 0 0 0 0 0 0 0 0 0 0 0 0 0 0 0 0 0 0 0
0 0 0 0 0 0 0 0 0 0 0 0 0 0 0 0 0 0 0 0 0 0 0 0 0 0 0 0 0 0 0 0 0 0 0 0 0 0 0 0 0 0 0 0
0 0 0 0 0 0 0 0 0 0 0 0 0 0 0 0 0 0 0 0 0 0 0 0 0 0 0 0 0 0 0 0 0 0 0 0 0 0 0 0 0 0 0 0
0 0 0 0 0 0 0 0 0 0 0 0 0 0 0 0 0 0 0 0 0 0 0 0 0 0 0 0 0 0 0 0 0 0 0 0 0 0 0 0 0 0 0 0
0 0 0 0 0 0 0 0 0 0 0 0 0 0 0 0 0 0 0 0 0 0 0 0 0 0 0 0 0 0 0 0 0 0 0 0 0 0 0 0 0 0 0 0
0 0 0 0 0 0 0 0 0 0 0 0 0 0 0 0 0 0 0 0 0 0 0 0 0 0 0 0 0 0 0 0 0 0 0 0 0 0 0 0 0 0 0 0
0 0 0 0 0 0 0 0 0 0 0 0 0 0 0 0 0 0 0 0 0 0 0 0 0 0 0 0 0 0 0 0 0 0 0 0 0 0 0 0 0 0 0 0
0 0 0 0 0 0 0 0 0 0 0 0 0 0 0 0 0 0 0 0 0 0 0 0 0 0 0 0 0 0 0 0 0 0 0 0 0 0 0 0 0 0 0 0
0 0 0 0 0 0 0 0 0 0 0 0 0 0 0 0 0 0 0 0 0 0 0 0 0 0 0 0 0 0 0 0 0 0 0 0 0 0 0 0 0 0 0 0
0 0 0 0 0 0 0 0 0 0 0 0 0 0 0 0 0 0 0 0 0 0 0 0 0 0 0 0 0 0 0 0 0 0 0 0 0 0 0 0 0 0 0 0
0 0 0 0 0 0 0 0 0 0 0 0 0 0 0 0 0 0 0 0 0 0 0 0 0 0 0 0 0 0 0 0 0 0 0 0 0 0 0 0 0 0 0 0
0 0 0 0 0 0 0 0 0 0 0 0 0 0 0 0 0 0 0 0 0 0 0 0 0 0 0 0 0 0 0 0 0 0 0 0 0 0 0 0 0 0 0 0
0 0 0 0 0 0 0 0 0 0 0 0 0 0 0 0 0 0 0 0 0 0 0 0 0 0 0 0 0 0 0 0 0 0 0 0 0 0 0 0 0 0 0 0
0 0 0 0 0 0 0 0 0 0 0 0 0 0 0 0 0 0 0 0 0 0 0 0 0 0 0 0 0 0 0 0 0 0 0 0 0 0 0 0 0 0 0 0
0 0 0 0 0 0 0 0 0 0 0 0 0 0 0 0 0 0 0 0 0 0 0 0 0 0 0 0 0 0 0 0 0 0 0 0 0 0 0 0 0 0 0 0
0 0 0 0 0 0 0 0 0 0 0 0 0 0 0 0 0 0 0 0 0 0 0 0 0 0 0 0 0 0 0 0 0 0 0 0 0 0 0 0 0 0 0 0
0 0 0 0 0 0 0 0 0 0 0 0 0 0 0 0 0 0 0 0 0 0 0 0 0 0 0 0 0 0 0 0 0 0 0 0 0 0 0 0 0 0 0 0
0 0 0 0 0 0 0 0 0 0 0 0 0 0 0 0 0 0 0 0 0 0 0 0 0 0 0 0 0 0 0 0 0 0 0 0 0 0 0 0 0 0 0 0
0 0 0 0 0 0 0 0 0 0 0 0 0 0 0 0 0 0 0 0 0 0 0 0 0 0 0 0 0 0 0 0 0 0 0 0 0 0 0 0 0 0 0 0
0 0 0 0 0 0 0 0 0 0 0 0 0 0 0 0 0 0 0 0 0 0 0 0 0 0 0 0 0 0 0 0 0 0 0 0 0 0 0 0 0 0 0 0
0 0 0 0 0 0 0 0 0 0 0 0 0 0 0 0 0 0 0 0 0 0 0 0 0 0 0 0 0 0 0 0 0 0 0 0 0 0 0 0 0 0 0 0
Wind_Speed
8 8 7 9 9 8 10 10 10 10 10 10 8 8 8 8 7 7 7 7 8 8 8 8 8 8 8 9 9 9 8 8 8 9 9 8 8 8 8 7 7 7 7 6
6 5 7 9 10 10 10 10 11 12 12 7 6 6 7 7 7 8 8 9 9 9 9 9 8 9 9 9 9 9 8 8 8 9 9 8 8 8 8 8 7 7 6 5
5 3 6 9 7 8 7 7 7 9 7 4 6 7 8 8 8 8 9 10 10 9 9 10 9 9 9 9 9 8 8 8 8 8 9 9 8 8 8 8 7 7 6 5
4 4 8 1 2 3 6 7 7 8 7 6 7 8 8 6 6 8 9 10 10 9 10 9 8 8 9 9 8 8 8 8 8 8 9 9 8 8 8 7 6 6 6 5
3 6 8 3 2 3 4 6 4 6 7 7 7 7 4 2 5 8 9 9 9 9 9 9 8 8 8 8 8 8 8 8 8 8 9 9 9 8 8 7 6 6 6 5
4 6 7 0 3 1 3 6 2 3 5 5 5 6 4 5 8 9 9 8 9 9 9 8 8 8 8 8 8 8 9 8 8 8 8 9 8 8 7 7 6 6 5 5
7 7 7 0 2 4 5 3 1 3 4 4 4 6 7 8 8 8 8 9 9 9 8 8 8 8 8 8 9 9 9 9 8 8 8 8 8 7 7 6 6 5 5 4
5 7 6 4 4 5 3 2 2 3 4 5 6 7 7 8 8 8 9 9 9 8 8 8 8 8 9 9 9 9 9 8 8 8 7 6 7 7 6 6 5 5 5 5
7 5 1 3 3 2 1 3 4 4 5 5 7 7 8 8 8 8 8 9 8 9 9 8 8 8 9 9 9 8 8 8 8 7 7 6 6 6 6 5 4 4 4 4
6 6 4 4 4 3 3 4 4 5 5 5 6 7 7 8 8 8 8 8 8 9 9 9 9 8 9 9 8 7 8 8 7 6 6 6 5 4 4 4 4 4 4 4
7 5 4 3 4 4 4 4 4 4 4 5 5 6 7 7 8 8 8 8 8 8 9 10 9 9 9 8 8 8 7 7 6 6 6 5 5 5 5 5 5 5 4 4
4 2 3 3 2 3 3 4 4 4 5 4 5 6 7 7 7 7 7 8 8 9 9 9 9 9 9 8 7 7 6 6 5 5 5 4 5 5 6 6 8 8 8 7
2 1 3 4 4 3 3 4 4 4 5 5 5 5 6 6 6 7 7 8 8 9 9 9 9 9 8 8 7 7 7 7 5 5 5 4 4 5 5 6 7 7 8 8
2 1 3 2 2 2 2 3 3 3 4 4 4 5 5 6 6 7 7 8 8 8 8 8 8 8 8 8 7 7 7 7 6 5 5 4 4 4 4 5 5 5 6 8
3 3 3 3 3 2 2 2 3 3 4 4 4 5 5 6 7 7 7 7 7 7 8 8 8 8 8 7 7 7 6 5 5 5 5 4 4 4 4 5 4 4 5 5
2 2 2 2 3 3 2 3 3 4 4 5 5 5 6 6 7 7 7 6 7 8 8 8 8 8 8 8 7 6 5 8 7 5 4 4 4 4 4 4 4 4 4 5
2 2 2 3 4 3 3 3 4 5 5 5 6 6 6 6 6 7 7 7 6 7 7 7 8 8 7 7 7 5 5 6 8 6 4 4 4 4 4 4 4 4 4 5
4 4 4 4 4 4 4 4 4 5 5 5 6 5 6 6 7 7 8 7 7 7 7 7 7 8 7 7 6 5 5 5 5 5 4 4 4 4 4 4 4 4 4 4
2 2 2 3 3 3 3 4 4 4 5 5 5 5 6 6 7 7 7 7 7 7 7 7 10 8 7 7 7 5 5 5 5 5 4 5 5 4 4 4 4 4 4 4
1 1 1 2 2 2 3 3 4 4 4 4 5 5 6 6 6 6 6 6 5 6 7 9 8 7 7 7 7 4 5 5 5 4 4 4 4 4 4 4 4 4 4 3
1 1 2 2 3 3 3 3 4 4 5 4 5 6 7 7 6 6 6 6 5 6 7 9 7 6 6 6 6 4 4 4 5 4 4 4 4 4 4 4 4 4 3 3
1 2 2 3 3 3 3 3 4 4 5 5 5 6 6 7 6 6 5 5 6 9 7 6 6 8 9 7 3 4 4 4 4 4 4 4 4 4 4 4 4 4 3 3
2 2 2 3 3 4 4 3 4 4 5 5 6 6 6 6 5 5 6 5 6 9 7 5 8 11 11 5 4 4 4 4 4 4 4 4 4 4 4 4 4 4 4 3
2 2 2 3 3 3 4 4 4 4 5 5 5 5 6 5 5 4 5 8 10 10 6 8 11 11 9 4 4 4 4 4 4 4 4 4 4 4 4 4 4 4 4 4
2 2 2 2 3 3 4 5 5 5 5 4 5 5 4 4 5 5 5 6 9 9 6 7 10 10 6 4 4 4 4 4 5 4 4 4 4 4 4 4 4 4 4 4
2 2 2 3 3 3 3 3 3 4 4 5 5 4 4 4 5 5 4 6 7 8 6 5 5 6 4 4 4 4 4 5 5 4 4 4 4 4 4 4 5 4 4 4
2 2 2 2 3 3 3 3 4 4 4 5 5 5 5 4 4 5 5 5 5 5 5 4 4 4 4 4 4 5 4 4 4 4 4 4 4 4 4 5 5 5 4 5
Wind_Direction
270 280 270 263 260 245 237 248 259 274 279 291 308 312 311 312 314 316 319 322 322 322 323 320 321 322 321 321 323 322 320 319 319 320 319 315 315 315 313 309 304 294 287 277
268 267 274 266 258 248 247 250 258 274 278 297 312 306 308 313 315 315 319 321 320 324 325 322 320 318 318 319 321 320 318 316 319 320 320 319 318 317 315 313 309 303 295 283
265 298 287 259 243 225 229 232 239 258 282 320 309 310 312 315 315 313 317 320 322 325 321 319 318 317 316 314 315 315 315 316 319 321 319 320 319 318 316 314 310 305 299 288
277 286 251 254 104 220 240 247 238 261 285 297 304 308 298 304 315 320 322 321 320 319 317 317 316 315 313 313 312 314 315 316 319 320 319 320 320 320 317 313 310 307 306 296
238 261 271 253 187 191 234 262 237 256 278 298 316 300 284 337 332 321 319 317 316 316 314 316 316 317 314 313 314 314 315 315 317 317 316 318 318 317 315 313 313 313 306 304
222 253 264 286 109 142 226 258 182 244 282 304 311 297 324 348 329 321 321 322 321 319 318 318 319 317 312 313 315 314 314 313 312 312 311 312 314 314 314 314 312 314 309 307
231 248 267 99 147 187 238 309 47 268 281 285 275 289 313 318 316 318 320 321 322 320 320 319 321 319 313 313 314 315 314 311 310 311 311 311 312 315 317 319 318 320 321 320
210 232 252 133 167 216 281 4 293 284 285 284 287 296 305 311 315 321 322 324 324 322 321 323 324 321 315 313 316 316 314 311 311 312 314 313 315 317 318 318 320 325 328 329
215 237 6 175 219 262 300 284 292 290 292 289 292 298 306 310 312 317 320 322 323 321 320 324 327 323 316 316 318 316 314 313 314 315 316 316 316 317 317 318 319 324 328 329
251 258 258 245 250 267 278 280 291 292 291 288 288 296 303 306 311 316 320 322 324 323 322 325 327 325 320 320 320 314 313 315 317 318 321 324 322 319 318 318 319 322 325 326
251 274 287 236 244 274 282 283 290 295 291 287 289 296 302 306 310 315 318 321 322 321 321 322 325 325 325 325 322 317 315 315 316 319 321 325 327 326 322 318 320 318 318 317
245 244 251 278 283 274 277 286 290 292 292 294 292 296 303 304 308 312 315 319 321 321 321 322 326 326 328 328 324 320 318 320 320 321 321 323 325 330 337 334 337 337 338 334
270 305 273 283 284 274 283 289 297 292 291 297 301 301 301 303 308 312 314 318 320 319 319 321 324 326 330 331 326 322 319 319 318 319 319 320 323 325 328 337 343 345 348 347
241 257 269 262 274 289 288 295 300 298 298 298 301 305 304 305 309 312 315 317 316 316 318 321 323 325 329 330 327 323 320 318 317 316 316 316 319 320 320 324 328 335 343 348
240 249 260 283 287 292 298 300 300 302 308 310 309 308 310 310 310 311 314 317 317 317 320 323 324 324 330 330 326 322 319 318 319 317 316 316 319 319 320 322 320 323 331 339
271 268 257 267 281 294 298 292 292 298 306 307 309 311 311 307 306 308 314 319 318 318 320 321 319 321 327 326 322 320 319 323 324 320 319 321 322 320 320 321 320 323 330 334
207 245 256 268 278 285 285 286 286 293 299 301 306 310 310 309 309 312 316 318 312 307 310 312 315 320 321 322 320 317 316 320 326 322 322 322 320 319 318 317 318 320 324 332
231 242 243 249 258 270 283 289 290 294 296 301 307 307 306 307 307 310 313 314 313 311 314 317 319 319 319 321 319 313 312 314 319 320 321 321 322 319 318 318 319 319 321 328
233 244 255 263 263 263 274 284 291 294 298 302 302 299 298 298 299 302 307 308 309 312 320 322 321 322 319 320 320 310 309 313 317 319 319 321 322 322 323 321 320 318 318 324
273 286 290 296 296 281 281 289 294 296 297 298 296 297 299 301 304 305 305 299 295 302 309 313 316 316 316 313 315 309 311 313 314 315 316 315 316 318 319 320 321 320 319 322
286 301 302 304 304 299 294 294 293 294 300 298 292 293 297 302 304 302 300 301 310 313 312 315 317 315 312 312 316 314 313 311 310 309 311 311 310 311 312 315 317 318 321 325
287 291 297 302 303 304 305 299 292 292 297 297 295 295 297 300 305 301 290 288 306 316 318 313 313 314 318 321 314 311 309 308 307 306 305 304 304 305 308 312 313 313 314 314
293 294 297 298 298 302 307 303 298 296 295 296 297 298 298 299 300 299 303 306 309 314 316 310 314 319 325 323 310 305 303 302 302 303 302 301 300 299 301 303 303 304 304 305
297 304 305 308 308 306 309 313 309 301 296 294 291 293 295 297 295 287 290 306 313 314 311 312 319 325 330 322 310 307 304 302 300 298 298 297 296 297 296 297 298 298 298 299
301 303 307 309 306 302 305 312 311 308 307 303 305 304 298 290 290 299 302 305 311 314 310 314 320 324 323 309 305 302 300 297 299 299 295 296 295 294 292 291 291 290 290 290
304 297 295 293 296 302 306 306 306 310 310 310 312 310 308 304 300 300 301 304 306 310 311 308 311 313 308 303 299 298 297 300 304 301 295 292 291 289 287 288 289 285 284 284
307 307 307 307 306 305 303 301 301 304 307 305 305 311 314 313 311 309 308 306 307 307 306 306 306 305 304 301 298 296 295 294 293 292 291 289 286 285 285 285 284 283 281 279